This is the latest recevied weather packets stored in our database for station/object KA1JKB. If no packets are shown the sender has not sent any weather packets the latest 10 day(s).
| Time | Temp. | Humidity | Pressure | Rain* | Wind** | Luminosity | Snow |
|---|---|---|---|---|---|---|---|
| 1787606538 | 24.44° C | 62% | 1014.1 hPa | 0 mm | - | 501 W/m² | - |
| 1787606237 | 24.44° C | 63% | 1013.9 hPa | 0 mm | - | 153 W/m² | - |
| 1787605937 | 24.44° C | 61% | 1013.6 hPa | 0 mm | - | 510 W/m² | - |
| 1787605635 | 25° C | 59% | 1013.8 hPa | 0 mm | - | 516 W/m² | - |
| 1787605332 | 24.44° C | 59% | 1013.7 hPa | 0 mm | - | 505 W/m² | - |
| 1787605027 | 24.44° C | 63% | 1013.8 hPa | 0 mm | - | 528 W/m² | - |
| 1787604726 | 24.44° C | 62% | 1013.6 hPa | 0 mm | - | 510 W/m² | - |
| 1787604422 | 23.89° C | 60% | 1013.6 hPa | 0 mm | - | 528 W/m² | - |
| 1787604121 | 24.44° C | 59% | 1013.7 hPa | 0 mm | - | 538 W/m² | - |
| 1787603821 | 24.44° C | 62% | 1013.7 hPa | 0 mm | - | 530 W/m² | - |
| 1787603516 | 24.44° C | 59% | 1013.5 hPa | 0 mm | - | 532 W/m² | - |
| 1787603212 | 24.44° C | 60% | 1013.5 hPa | 0 mm | - | 555 W/m² | - |
| 1787602908 | 24.44° C | 62% | 1013.4 hPa | 0 mm | - | 575 W/m² | - |
| 1787602603 | 23.89° C | 63% | 1013.5 hPa | 0 mm | - | 583 W/m² | - |
| 1787602299 | 24.44° C | 61% | 1013.5 hPa | 0 mm | - | 595 W/m² | - |
| 1787601998 | 24.44° C | 61% | 1013.5 hPa | 0 mm | - | 583 W/m² | - |
| 1787601692 | 23.89° C | 60% | 1013.5 hPa | 0 mm | - | 575 W/m² | - |
| 1787601387 | 23.89° C | 61% | 1013.5 hPa | 0 mm | - | 593 W/m² | - |
| 1787601087 | 23.89° C | 63% | 1013.7 hPa | 0 mm | - | 603 W/m² | - |
| 1787600781 | 23.89° C | 62% | 1013.6 hPa | 0 mm | - | 606 W/m² | - |
| 1787600477 | 23.89° C | 63% | 1013.8 hPa | 0 mm | - | 611 W/m² | - |
| 1787600173 | 23.33° C | 64% | 1013.8 hPa | 0 mm | - | 638 W/m² | - |
| 1787599869 | 23.89° C | 61% | 1013.8 hPa | 0 mm | - | 645 W/m² | - |
| 1787599565 | 23.33° C | 61% | 1013.8 hPa | 0 mm | - | 624 W/m² | - |
| 1787599261 | 23.33° C | 62% | 1013.8 hPa | 0 mm | - | 626 W/m² | - |
* Rain latest hour (hover to see other rain measurements)
** Current wind speed in m/s (hover to see current wind gust speed)